Weather History for West Palm Beach, FL

Change the Weather History Date:

Wednesday, December 5, 2012

  Actual Average Record
Temperature  
Mean Temperature 76 °F 70 °F  
Max Temperature 80 °F 78 °F 90 °F (1941)
Min Temperature 71 °F 62 °F 41 °F (1968)
Degree Days  
Heating Degree Days 0 1  
Month to date heating degree days 0 5  
Since 1 July heating degree days 12 17  
Cooling Degree Days 11 6  
Month to date cooling degree days 55 30  
Year to date cooling degree days 4079 3896  
Growing Degree Days 26 (Base 50)    
Moisture  
Dew Point 61 °F    
Average Humidity 60    
Maximum Humidity 68    
Minimum Humidity 51    
Precipitation  
Precipitation 0.00 in 0.11 in 2.65 in (1994)
Month to date precipitation 0.02 0.56  
Year to date precipitation 77.62 59.51  
Snow  
Snow 0.00 in - - ()
Month to date snowfall 0.0  
Since 1 July snowfall 0.0  
Snow Depth 0.00 in    
Sea Level Pressure  
Sea Level Pressure 30.08 in    
Wind  
Wind Speed 10 mph (East)    
Max Wind Speed 15 mph    
Max Gust Speed 18 mph    
Visibility 10 miles    
Events      
T = Trace of Precipitation, MM = Missing Value Source: NWS Daily Summary

Daily Weather History Graph

Daily Weather History Graph

Search for Another Location

Airport:

Trip Planner

Search our weather history database for the weather conditions in past years. The results will help you decide how hot, cold, wet, or windy it might be!

Date:

Astronomy

Dec. 05, 2012 Rise Set
Actual Time 6:55 AM EST 5:27 PM EST
Civil Twilight 6:29 AM EST 5:52 PM EST
Nautical Twilight 6:01 AM EST 6:21 PM EST
Astronomical Twilight 5:32 AM EST 6:49 PM EST
Moon 11:47 PM EST (12/5) 11:42 AM EST (12/5)
Length of Visible Light 11h 22m
Length of Day
10h 32m
Waning Gibbous, 60% of the Moon is Illuminated
Dec 5
Waning Gibbous
Dec 6
Last Quarter
Dec 13
New
Dec 20
First Quarter
Dec 28
Full

Hourly Weather History & Observations

Time (EST) Temp. Heat Index Dew Point Humidity Pressure Visibility Wind Dir Wind Speed Gust Speed Precip Events Conditions
12:53 AM 72.0 °F - 60.1 °F 66% 30.15 in 10.0 mi East 12.7 mph - N/A   Scattered Clouds
1:53 AM 72.0 °F - 60.1 °F 66% 30.15 in 10.0 mi East 9.2 mph - N/A   Scattered Clouds
2:53 AM 72.0 °F - 61.0 °F 68% 30.13 in 10.0 mi East 9.2 mph - N/A   Scattered Clouds
3:53 AM 73.0 °F - 62.1 °F 68% 30.12 in 10.0 mi East 10.4 mph - N/A   Mostly Cloudy
4:53 AM 73.0 °F - 62.1 °F 68% 30.10 in 10.0 mi East 10.4 mph - N/A   Mostly Cloudy
5:53 AM 73.9 °F - 61.0 °F 64% 30.11 in 10.0 mi SE 10.4 mph - N/A   Mostly Cloudy
6:53 AM 73.9 °F - 61.0 °F 64% 30.12 in 10.0 mi East 6.9 mph - N/A   Mostly Cloudy
7:53 AM 73.9 °F - 60.1 °F 62% 30.13 in 10.0 mi East 9.2 mph - N/A   Mostly Cloudy
9:53 AM 77.0 °F - 60.1 °F 56% 30.14 in 10.0 mi East 15.0 mph - N/A   Mostly Cloudy
10:53 AM 78.1 °F - 59.0 °F 52% 30.13 in 10.0 mi East 12.7 mph - N/A   Mostly Cloudy
11:53 AM 78.1 °F - 60.1 °F 54% 30.11 in 10.0 mi SE 10.4 mph - N/A   Mostly Cloudy
12:53 PM 80.1 °F 81.1 °F 61.0 °F 52% 30.08 in 10.0 mi ESE 11.5 mph - N/A   Mostly Cloudy
1:53 PM 77.0 °F - 61.0 °F 58% 30.06 in 10.0 mi East 11.5 mph - N/A   Mostly Cloudy
2:53 PM 77.0 °F - 59.0 °F 54% 30.04 in 10.0 mi East 8.1 mph - N/A   Mostly Cloudy
3:53 PM 75.9 °F - 61.0 °F 60% 30.04 in 10.0 mi ESE 9.2 mph - N/A   Mostly Cloudy
4:53 PM 75.9 °F - 60.1 °F 58% 30.04 in 10.0 mi ESE 9.2 mph - N/A   Mostly Cloudy
5:53 PM 75.0 °F - 60.1 °F 60% 30.04 in 10.0 mi East 6.9 mph - N/A   Scattered Clouds
6:53 PM 73.9 °F - 60.1 °F 62% 30.04 in 10.0 mi East 8.1 mph - N/A   Scattered Clouds
7:53 PM 73.9 °F - 62.1 °F 66% 30.04 in 10.0 mi East 6.9 mph - N/A   Scattered Clouds
8:53 PM 73.9 °F - 63.0 °F 68% 30.04 in 10.0 mi East 11.5 mph - N/A   Scattered Clouds
9:53 PM 73.9 °F - 63.0 °F 68% 30.03 in 10.0 mi East 9.2 mph - N/A   Scattered Clouds
10:53 PM 73.9 °F - 63.0 °F 68% 30.03 in 10.0 mi East 10.4 mph - N/A   Scattered Clouds
11:53 PM 73.9 °F - 63.0 °F 68% 30.03 in 10.0 mi East 9.2 mph - N/A   Scattered Clouds